Location: Chakepay
(13.3931°S, 72.1925°W)
Time: 17:06:11
(UTC+00:00)

ARIANE 5 R/B - Pass Details

Date: 15 November 2019
Orbit: 272 x 33163 km, 2.6° (Epoch: 05 December)

Event Time Altitude Azimuth Distance (km) Brightness Sun altitude
Rises 00:24:56 0° 302° (WNW) 2,279 5.9 -21.1°
Reaches altitude 10° 00:26:25 10° 319° (NW) 1,762 5.1 -21.4°
Enters shadow 00:28:59 26° 8° (N) 1,611 4.3 -21.9°
